星链-37729(STARLINK-37729)

导读

STARLINK-37729(NORAD 69653)是美国SpaceX公司星链(Starlink)低轨卫星互联网星座的组网卫星,由猎鹰9号火箭发射入轨,当前处于在轨运行状态。该卫星为量产型星链V2系列平台,运行于高度约500-560千米的近地轨道,采用Ku/Ka频段通信载荷,主要面向全球地面用户、偏远地区及移动场景提供低延迟高速宽带接入服务,是SpaceX持续扩容全球卫星通信网络的组成部分,SpaceX为其配备自主碰撞规避系统保障轨道安全。

Basic Information
目录编号:
69653
目录名称:
STARLINK-37729
国际标识:
2026-143E
轨道中心:
EARTH
卫星名称:
星链-37729
卫星全名:
星链-37729(STARLINK-37729)
卫星状态:
在轨 (已飞行76 天)
发射日期:
2026-06-21 UTC
国别 :
美国 (US)
星等 :
--
Orbit Information
数据来源 国际轨道数据 AOE轨道数据
星历时间 2026-09-05T01:41:29+0800
13小时前
查看轨道信息
2026-09-04T23:00:00+0800
16小时前
查看轨道信息
半长轴 6864.594km 6864.702km
偏心率 0.0000987 0.000186
轨道倾角 97.284° 97.286°
近地点辐角 100.787° 345.590°
升交点赤经 291.421° 291.311°
平近点角 259.348° 118.656°
近地点 485.779km 485.288km
远地点 487.135km 487.842km
周期 94.337分钟 94.339分钟
每日圈数 15.264429 15.264067
Detailed Information
固有亮度:
5
最大亮度:
2.5
卫星平台:
Starlink V1.0
覆盖范围:
全球
运营商:
太空探索技术公司
运营商所在国:
美国
制造商(研发单位):
太空探索技术公司
制造商所在国:
美国
使用方式:
暂无
Satellite Introduction
Starlink 计划是 SpaceX 推出的全球卫星互联网项目,通过发射低轨道卫星,为全球尤其是偏远地区提供高速、低延迟的互联网服务。自 2019 年起,Starlink 已部署数千颗卫星,旨在缩小全球数字鸿沟,推动互联网普及。该项目还为军事、航空等行业提供通信支持,带来广泛经济效益。
2D Orbit Map
3D Orbit Map
Orbit Altitude Analysis Chart
Orbit Inclination Analysis Chart
Orbit Comprehensive Analysis Chart
View Comprehensive Chart
Conjunction Data List
Event ID Objects TCA Miss Dist (km) Collision Risk Probability Collision Risk Index (CRI) Action
CDM_260906-184005-906606-965321
OBJECT R (59066)
2026-09-06T
18:40:50+0000
2.140 km
极远距离
4.35221E-7 极低风险 0.28